Content
SEND FEEDBACK

Daily
Averages
Monthly
Summary
Mexico

ISLA MUJERES, QUINTANA ROO


Home > North America > Mexico > Quintana Roo
Elevation: 16 feet     Latitude: 21 14N     Longitude: 086 44W

WEATHER
 
SELECT A DAY
Number of Records: 163,979;   Date Range: 1/1/95 - 9/21/14
 
SHARE

PRINT THIS DATA

[ ← Previous Day ]
WEATHER ALMANAC - MARCH 14, 2013
[ Next Day → ]
[ °C ]   °F
Weather ElementAverageHighLow
Temperature72.9 °F77 °F (1:42 pm)69.8 °F (9:48 pm)
Dewpoint56.7 °F57.2 °F (1:51 am)55.4 °F (6:47 am)
Humidity56.8 %60 % (1:51 am)50 % (12:40 pm)
Barometer30.16 in30.21 in (9:48 am)30.11 in (2:45 am)
Wind Speed8.1 mph11.5 mph (8:43 am)
Wind Gust24.2 mph (9:48 am)
Weather ElementAverage
Visibility7 mi
Wind DirectionENE (65.7 °)

Weather ElementTotal
Precipitation---
Cooling Degree Days8.4 (Base 65)
Growing Degree Days23.4 (Base 50)
Averaged from 23 records on March 14, 2013
WEATHER CONDITIONS BREAKOUT
WIND DIRECTION BREAKOUT
WEATHER BY HOUR - MARCH 14, 2013
[ °C ]   °F
Local TimeTemperatureDewpointHumidityBarometerVisibilityWind DirectionWind SpeedGust SpeedPrecipitationEventsConditions
1:51 AM71.6 °F57.2 °F60 %30.12 in7.0 miNNE (30°)5.8 mphScattered Clouds
2:45 AM71.6 °F57.2 °F60 %30.11 in7.0 miNE (40°)5.8 mphScattered Clouds
3:53 AM71.6 °F57.2 °F60 %30.11 in7.0 miNNE (30°)8.1 mphScattered Clouds
4:40 AM71.6 °F57.2 °F60 %30.13 in7.0 miNNE (30°)8.1 mphScattered Clouds
5:40 AM71.6 °F57.2 °F60 %30.14 in7.0 miNNE (20°)8.1 mphScattered Clouds
6:47 AM71.6 °F55.4 °F57 %30.17 in7.0 miNNE (20°)8.1 mphMostly Cloudy
7:40 AM73.4 °F57.2 °F57 %30.19 in7.0 miNE (40°)8.1 mphMostly Cloudy
8:43 AM75.2 °F57.2 °F53 %30.20 in7.0 miNorth (10°)11.5 mphMostly Cloudy
9:48 AM75.2 °F57.2 °F53 %30.21 in7.0 miNNE (20°)11.5 mph24.2 mphMostly Cloudy
10:43 AM73.4 °F57.2 °F57 %30.21 in7.0 miNNE (20°)11.5 mphMostly Cloudy
11:40 AM75.2 °F57.2 °F53 %30.19 in7.0 miNorth (10°)10.4 mph21.9 mphMostly Cloudy
12:40 PM75.2 °F55.4 °F50 %30.17 in7.0 miNorth (360°)6.9 mphMostly Cloudy
1:42 PM77.0 °F57.2 °F50 %30.15 in7.0 miNNE (20°)11.5 mphMostly Cloudy
2:46 PM77.0 °F57.2 °F50 %30.15 in7.0 miNorth (350°)11.5 mphMostly Cloudy
3:42 PM75.2 °F57.2 °F53 %30.13 in7.0 miNNE (30°)9.2 mphMostly Cloudy
4:41 PM73.4 °F57.2 °F57 %30.14 in7.0 miNorth (10°)4.6 mphMostly Cloudy
5:48 PM71.6 °F57.2 °F60 %30.15 in7.0 miNorth (360°)6.9 mphMostly Cloudy
6:43 PM71.6 °F57.2 °F60 %30.16 in7.0 miNNE (20°)4.6 mphMostly Cloudy
7:44 PM71.6 °F57.2 °F60 %30.18 in7.0 miNorth (10°)6.9 mphMostly Cloudy
8:41 PM71.6 °F55.4 °F57 %30.18 in7.0 miNNE (20°)6.9 mphScattered Clouds
9:48 PM69.8 °F55.4 °F60 %30.19 in7.0 miNNE (30°)5.8 mphScattered Clouds
10:47 PM69.8 °F55.4 °F60 %30.19 in7.0 miNNE (20°)6.9 mphScattered Clouds
11:46 PM69.8 °F55.4 °F60 %30.16 in7.0 miNorth (10°)6.9 mphScattered Clouds
Hourly data recorded from MMUN, located miles away from Isla Mujeres, Quintana Roo







STORIES FROM OUR PARTNERS